Temp_Advection
nan nan nan nan nan nan nan nan nan nan nan nan nan nan nan nan nan nan nan nan nan nan nan nan nan nan nan nan nan nan nan nan nan nan nan nan nan nan nan nan nan nan nan nan nan nan nan nan nan nan nan nan nan nan nan nan nan nan nan nan nan nan
nan 1 1 1 1 0 -0 0 1 0 0 1 1 1 1 0 0 0 0 0 0 0 0 0 0 1 0 -0 -0 -0 -0 -0 -0 0 0 0 -0 -0 -0 0 0 0 0 0 0 0 0 0 0 0 0 -0 -1 -1 -0 0 0 -0 -0 -0 -0 nan
nan 1 1 1 1 1 0 0 1 0 0 0 0 0 0 0 0 0 0 0 0 0 0 0 0 0 0 0 0 -0 -0 -0 0 0 0 0 0 0 -0 0 0 0 0 0 0 0 0 0 0 0 0 -0 -1 -0 -0 -0 -0 -0 0 -0 -0 nan
nan 0 0 0 0 1 1 0 0 0 0 0 0 0 0 0 0 0 0 0 1 0 0 0 0 0 -0 -0 0 0 -0 0 0 0 0 0 0 0 0 -0 0 0 0 0 -0 0 0 0 0 0 -0 -0 -0 0 -0 -0 -0 -0 -0 -0 0 nan
nan -0 -0 -0 -0 0 0 0 -0 -0 0 0 0 0 0 0 -0 -0 0 0 0 0 0 0 -0 -0 0 -0 -0 0 0 0 1 0 0 1 1 0 0 0 0 -0 0 0 -0 -0 -0 0 0 -0 -0 0 0 0 -0 -0 -0 -0 -0 -0 0 nan
nan -0 -0 -0 -0 -0 0 -0 -0 -0 -0 -0 -0 -0 -0 -0 -0 -0 0 -0 -0 -0 0 -0 -0 -0 0 -0 0 0 1 1 1 0 1 1 1 0 0 0 0 -0 0 0 -0 -0 0 0 0 0 -0 -0 -0 0 0 -0 -0 -0 -0 -0 0 nan
nan 0 -0 -0 0 0 -0 -0 -0 0 0 0 -0 -0 0 -0 -0 0 0 -0 -0 0 0 -0 -0 0 0 0 0 0 1 1 1 1 1 1 1 0 0 0 0 0 0 0 -0 0 0 -0 -0 -0 -0 0 -0 0 0 0 -0 -0 0 -0 0 nan
nan 0 -0 0 0 -0 -0 -1 0 1 0 0 -0 0 0 -0 0 0 0 0 0 0 0 -0 0 0 0 0 0 0 1 1 1 1 1 1 -0 -0 -0 -0 0 0 0 -0 0 0 -0 -0 0 -0 -0 -0 0 0 0 0 0 -0 0 -0 -0 nan
nan -0 -0 0 0 -0 -0 -0 0 1 0 0 0 0 0 -0 0 0 0 -0 0 0 0 0 0 0 0 0 0 0 0 0 1 0 0 1 -0 -0 -0 -0 0 0 0 -0 0 0 0 0 -0 0 -0 -0 -0 0 0 0 0 -0 -0 -0 -0 nan
nan -0 0 0 0 -0 -0 0 0 0 0 -0 0 0 0 -0 0 0 -0 -0 -0 -0 -0 -0 0 -0 -0 0 0 0 0 0 0 0 0 0 -0 0 -0 -0 0 -0 -0 -0 0 0 0 -0 -0 -0 0 -0 0 0 0 0 0 0 0 -0 -0 nan
nan 0 0 0 -0 -0 -0 -0 0 0 0 0 0 0 -0 0 0 -0 -0 -0 -0 -0 -0 -0 -0 -0 -0 0 0 0 0 0 0 0 0 0 0 0 0 0 -0 -0 -0 -0 0 0 -0 -0 -0 0 0 0 0 0 0 0 0 0 0 0 0 nan
nan -0 -0 -0 -0 -0 -0 0 0 0 0 0 0 0 0 0 0 -0 -0 -0 -0 -0 0 0 0 0 0 0 0 0 -0 -0 -0 -0 -0 0 0 0 -0 -0 -0 -0 -0 -0 0 0 0 -0 0 0 0 0 0 0 0 0 0 0 0 0 0 nan
nan 0 0 0 0 0 0 0 0 0 0 0 -0 0 0 0 0 0 0 0 -0 0 0 0 0 0 0 0 0 0 -0 -0 -0 -0 -0 0 0 -0 -0 -0 -0 -0 0 0 0 0 0 0 0 0 0 0 0 0 0 0 0 0 0 0 0 nan
nan 0 0 0 0 0 0 0 0 0 0 -0 0 0 0 0 0 0 0 0 -0 0 0 0 0 0 0 0 0 -0 -0 0 0 -0 -0 0 0 -0 -0 -0 -0 -0 0 0 0 0 0 0 0 0 0 0 0 0 0 0 0 0 0 0 -0 nan
nan 0 0 0 0 0 0 0 0 0 -0 -0 0 0 0 0 0 0 0 0 0 0 0 0 -0 0 0 0 0 -0 -0 0 0 -0 -0 0 0 -0 0 0 -0 0 0 0 0 0 0 0 0 0 0 0 0 0 0 0 -0 -0 0 -0 -0 nan
nan 0 0 0 0 0 0 0 0 -0 -0 0 0 0 0 -0 0 0 0 0 0 0 0 0 -0 0 0 0 0 -0 0 0 0 0 0 0 -0 0 0 0 -0 0 1 0 -0 0 -0 0 0 0 0 0 0 0 0 0 -0 0 0 0 0 nan
nan -0 0 0 0 0 0 0 0 0 0 0 0 0 -0 -0 0 0 0 0 -0 -0 0 0 -0 -0 0 0 0 -0 0 -0 0 0 0 0 0 -0 0 0 0 0 0 -0 -0 -0 -0 0 0 0 0 0 0 0 0 0 0 0 0 0 0 nan
nan 0 0 0 0 0 0 0 0 0 -0 0 0 0 0 -0 0 0 0 0 0 0 0 -0 -0 -0 -0 0 0 -0 -0 0 0 0 0 0 -0 -0 0 0 0 -0 0 -0 -0 -0 -0 0 0 0 0 0 0 0 0 0 0 0 -0 0 -0 nan
nan 0 0 0 0 -0 0 0 0 0 0 0 0 -0 -0 0 0 0 0 0 0 0 0 -0 -1 -0 -0 -0 0 0 0 0 0 -0 0 -0 -0 -0 0 0 -0 0 0 0 -0 -0 0 0 0 0 0 0 0 -0 0 0 0 -0 0 0 -0 nan
nan 0 0 0 0 0 0 0 0 0 0 0 0 0 -0 0 0 0 0 0 0 -0 0 0 -0 -0 -0 -0 0 0 0 0 0 0 0 -0 -0 -0 0 0 0 0 0 0 -0 -0 0 0 0 0 0 0 0 -0 0 1 0 0 0 0 0 nan
nan 0 0 0 0 0 0 0 -0 -0 -0 0 0 0 -0 0 -0 -0 -0 0 0 0 0 0 -0 -0 -0 0 0 -0 -0 0 -0 0 0 -0 -0 -0 0 1 0 0 0 0 -0 0 0 0 0 0 0 0 -0 0 0 0 -0 0 0 -0 0 nan
nan 0 0 0 0 -0 0 0 -0 -0 -0 0 0 0 0 0 -0 -0 -0 -0 0 0 0 0 0 -0 0 0 -0 -0 -0 -0 -0 -0 0 0 -0 -0 0 0 -0 0 0 -0 -0 0 0 -0 -0 0 -0 -0 -0 0 0 0 0 0 -0 -0 -0 nan
nan 0 -0 0 0 0 0 -0 0 0 -0 -0 -0 -0 0 0 0 0 -0 -0 0 0 0 0 0 0 0 0 0 -0 -0 -0 -0 0 0 0 -0 -0 0 0 -0 0 0 -0 0 0 0 -0 -0 0 0 -0 -0 0 0 0 0 0 -0 -0 0 nan
nan 0 0 0 0 0 -0 -0 -0 -0 0 0 -0 -0 0 0 0 0 -0 -0 0 0 0 0 0 0 0 0 0 -0 -0 -0 -0 0 0 0 -0 -0 0 0 0 0 0 -0 0 0 -0 0 0 0 0 0 0 0 -0 -0 0 0 -0 0 0 nan
nan 0 -0 0 0 0 -0 -0 -0 -0 0 0 -0 -0 -0 0 0 0 0 -0 -0 -0 0 0 0 0 0 0 0 0 -0 -0 -0 -0 0 -0 -0 0 0 0 0 0 -0 -0 1 1 0 0 0 0 0 0 -0 -0 -0 0 0 0 0 0 0 nan
nan 0 0 0 0 0 -0 0 -0 -0 -0 -0 -0 -0 -0 -0 0 0 0 0 -0 0 0 -0 0 0 0 0 0 0 -0 -0 -0 0 0 -0 1 0 0 1 1 -0 -0 0 1 0 -0 -0 -0 0 0 -0 -0 -0 0 0 0 0 0 -0 -0 nan
nan 0 0 0 0 0 0 0 -0 -0 0 -0 -0 -0 -0 0 0 0 0 0 0 0 0 0 0 0 -0 -0 0 1 0 -0 -0 0 0 0 0 0 0 1 0 -0 0 1 0 -0 -0 -0 0 0 -0 -0 -0 0 0 0 0 -0 -0 -0 -0 nan
nan -0 0 0 0 0 0 0 0 0 0 0 -0 -0 0 0 -0 -0 0 0 0 0 0 0 0 -0 -0 0 0 0 0 0 0 0 0 -0 0 0 0 0 -0 -0 0 0 0 0 0 0 0 -0 -0 -0 0 0 0 0 -0 -0 -0 -0 -0 nan
nan -0 -0 0 0 0 0 0 0 0 0 0 -0 -0 -0 0 0 -0 0 0 -0 0 0 0 0 -0 0 0 0 0 0 0 0 0 -0 -0 0 0 0 0 -0 0 -0 -0 0 1 1 0 -0 -0 0 0 0 0 0 -0 -0 -0 -0 -0 -0 nan
nan -0 -0 0 -0 0 0 -0 0 0 -0 0 0 -0 -0 -0 0 -0 0 0 -0 -0 -0 0 0 0 0 0 0 1 0 -0 -0 0 0 -0 0 0 0 0 0 0 -0 0 1 1 0 -0 -0 0 0 -0 -0 -0 -0 0 0 -0 0 0 -0 nan
nan -0 -0 -0 -0 -0 -0 -0 -0 -0 -0 -0 -0 0 -0 -0 -0 -0 0 0 0 -0 -0 0 0 0 0 0 0 0 0 0 0 -0 -0 0 0 0 0 0 0 0 -0 0 1 0 -0 -0 0 0 -0 -0 -0 0 0 0 0 0 0 -0 -0 nan
nan 0 -0 -0 -0 -0 -0 -0 -0 -0 -0 -0 -0 0 -0 -0 -1 -0 -0 0 0 0 0 0 0 0 -0 0 0 -0 -0 0 0 -0 0 0 0 0 -0 0 0 0 0 0 0 0 0 0 0 -0 -1 -0 0 0 0 0 0 0 0 -0 -0 nan
nan -0 -0 -0 -0 -0 -0 -0 -0 -0 0 -0 -0 0 -0 -1 -1 0 0 -0 -0 -0 -0 1 1 0 -0 -0 -0 -0 0 0 0 0 0 0 0 -0 -0 -0 0 0 0 0 0 0 0 0 0 -0 -0 0 0 0 0 -0 0 0 -0 -1 -0 nan
nan -0 -0 -0 -0 -0 -0 -0 -0 -0 -0 0 0 0 -0 -1 -1 0 1 -0 -1 -1 -0 1 1 0 -0 -0 -0 0 0 0 0 0 0 0 0 -0 -0 -0 0 1 0 -0 -0 0 0 0 0 -0 -0 0 0 -0 -0 -0 0 0 -1 -1 -0 nan
nan -0 -0 -0 -0 -0 -0 -0 -0 -0 -0 -0 0 -0 -0 -0 -0 -0 0 0 -0 -0 0 1 0 0 -0 -0 -0 0 0 -0 0 1 0 0 0 0 -0 0 0 1 0 -0 -0 0 0 0 -0 -0 -0 -0 -0 -0 -0 -0 -0 -0 -1 -0 0 nan
nan -0 -0 -0 -0 -0 -0 -0 -0 0 -0 -0 -0 -0 -0 -0 -0 -0 0 0 -0 -0 0 0 0 0 -0 -0 0 0 0 0 0 0 0 0 0 0 0 0 1 0 -0 -0 0 1 0 -0 -0 -1 -0 -0 -0 -0 0 -0 -0 -0 -0 0 0 nan
nan nan nan nan nan nan nan nan nan nan nan nan nan nan nan nan nan nan nan nan nan nan nan nan nan nan nan nan nan nan nan nan nan nan nan nan nan nan nan nan nan nan nan nan nan nan nan nan nan nan nan nan nan nan nan nan nan nan nan nan nan nan
Wind_Speed
16 15 14 14 15 16 15 15 14 14 14 13 13 12 12 11 12 12 11 10 9 9 10 11 13 13 13 13 13 12 11 10 10 11 12 13 13 12 11 10 9 9 9 10 11 11 11 11 11 11 11 10 11 13 10 8 6 6 4 1 2 3
14 14 14 13 13 15 17 17 15 14 14 13 12 11 11 9 9 9 8 9 8 7 6 7 10 12 13 14 14 13 12 12 11 11 12 13 13 12 12 10 9 8 8 8 9 9 9 9 9 10 8 8 10 8 7 8 7 6 4 2 1 2
14 14 14 12 11 12 15 14 11 11 11 11 11 9 8 6 5 5 4 6 6 5 4 4 6 8 10 13 15 15 14 13 13 12 12 12 12 12 11 10 9 9 7 7 7 7 6 6 7 7 5 7 8 4 5 8 7 5 2 4 1 0
15 15 14 12 10 10 10 11 8 7 6 6 6 6 6 4 4 5 4 5 7 8 8 7 8 8 8 9 12 15 16 15 15 14 13 12 11 11 11 10 10 9 8 6 5 4 3 3 3 4 4 5 5 4 5 6 5 5 1 4 3 2
13 14 12 9 8 9 10 10 9 6 6 7 6 6 7 7 7 8 7 7 9 10 10 10 10 10 8 8 10 13 15 16 17 16 15 13 12 12 11 11 10 10 9 7 5 6 6 3 0 2 4 3 4 5 4 4 5 6 2 5 3 3
10 10 10 7 8 10 10 10 8 8 10 9 8 9 10 10 9 10 11 10 9 10 12 12 12 12 10 10 9 10 13 16 17 17 17 15 13 12 12 11 11 11 9 6 6 8 8 6 3 3 4 4 4 4 4 3 4 5 3 5 4 3
9 9 9 9 11 11 10 10 9 11 13 11 11 11 10 10 11 12 14 13 11 11 13 13 14 15 14 12 11 10 10 13 16 16 17 15 13 13 12 11 12 11 9 8 9 9 8 7 5 5 5 4 5 4 3 3 4 5 3 6 3 4
9 10 11 11 11 10 11 11 11 13 13 13 13 11 10 11 13 14 15 14 13 13 13 13 14 16 16 13 12 11 11 12 14 14 17 16 15 15 13 13 13 12 11 11 11 10 8 7 6 6 5 5 6 5 4 4 4 5 3 4 2 3
9 10 11 12 11 12 13 13 13 13 13 13 12 11 13 14 14 15 15 14 13 14 14 13 14 14 15 15 14 13 13 13 13 12 15 15 16 16 15 14 14 13 12 12 11 11 9 8 7 7 6 6 6 6 5 5 5 5 5 4 4 2
11 11 12 13 14 14 13 13 13 13 12 11 11 13 15 16 16 15 13 13 14 15 15 15 14 12 12 15 14 13 13 13 13 12 13 14 16 16 16 15 14 14 14 12 11 11 10 8 8 7 7 7 6 4 4 5 5 6 6 7 7 6
12 11 12 13 13 13 12 13 12 11 11 11 12 14 15 15 15 13 12 13 14 15 16 16 15 11 11 12 11 11 12 12 12 13 13 13 13 16 17 16 16 16 15 14 12 11 11 9 9 8 8 7 5 4 5 6 6 7 6 6 6 7
10 10 10 10 9 11 11 12 12 11 11 12 13 14 15 14 13 12 12 14 15 16 17 16 16 13 13 13 12 13 13 12 12 13 15 13 13 17 19 18 17 16 14 15 13 11 11 10 10 9 8 8 7 6 6 6 6 7 6 5 5 5
8 8 9 9 9 10 10 11 11 10 11 12 13 14 14 12 12 13 13 15 16 16 16 16 16 15 14 15 16 17 16 15 15 15 15 14 13 17 19 18 18 16 15 15 13 12 11 11 11 10 9 9 8 7 7 6 6 8 7 6 5 4
6 7 8 9 10 9 9 10 9 10 11 12 12 12 11 11 11 12 11 13 14 13 13 14 15 15 17 16 17 18 16 17 18 17 17 15 14 16 17 18 20 19 17 16 14 14 13 12 12 11 10 10 9 9 8 7 7 8 8 7 6 6
4 6 6 7 9 8 10 10 9 10 11 12 12 9 9 10 10 12 12 13 14 13 11 13 14 14 17 17 17 17 16 17 18 18 19 19 19 17 15 17 22 21 19 18 16 15 15 14 13 12 12 11 9 10 9 8 9 8 8 8 8 8
5 5 6 6 7 8 10 11 11 11 12 12 11 8 9 13 13 13 14 15 16 15 12 12 13 14 16 17 17 17 16 16 18 19 20 20 21 20 17 17 20 22 21 20 18 17 16 15 14 13 13 11 11 11 9 9 10 8 8 9 7 8
3 4 5 6 6 8 9 10 12 12 11 12 11 10 12 14 13 12 13 16 15 14 12 12 13 13 15 16 17 17 17 16 16 18 19 20 21 22 21 18 18 21 22 20 20 19 17 16 15 15 14 12 12 12 10 10 10 8 9 9 8 9
3 2 3 4 6 7 8 9 11 12 12 13 12 13 14 14 13 11 14 15 13 13 13 12 14 14 15 16 16 17 17 16 16 17 18 21 22 21 22 21 19 21 23 23 22 20 18 16 16 15 14 13 13 13 12 12 11 9 9 9 9 9
3 2 4 5 6 8 9 9 10 11 13 13 13 13 13 13 12 11 15 14 12 13 14 13 14 15 16 16 15 16 17 17 17 17 17 19 21 20 20 22 22 21 23 23 20 19 18 18 15 14 14 13 13 14 13 14 12 10 9 10 11 10
1 2 4 6 7 8 9 10 10 10 12 12 11 11 11 11 10 11 15 13 11 13 12 13 14 14 15 15 16 17 18 18 18 19 19 19 18 17 19 22 23 23 23 22 19 19 19 19 16 13 13 13 14 15 15 16 13 11 11 11 11 10
1 1 3 5 6 6 6 7 8 8 10 11 10 9 9 9 9 11 14 13 11 12 11 12 13 13 14 15 16 17 18 19 20 22 22 20 17 16 17 20 23 25 25 23 22 21 20 19 17 14 13 14 15 16 16 16 14 13 12 11 11 11
2 1 2 3 3 3 5 6 6 6 7 8 8 9 8 7 8 10 13 12 11 13 12 13 14 14 15 15 16 18 18 18 19 21 22 21 19 18 18 20 22 24 25 25 25 23 22 21 18 16 14 14 16 17 16 17 15 14 15 14 13 13
2 0 1 3 2 2 5 6 6 7 8 7 7 9 9 9 10 11 12 11 11 13 13 13 14 14 15 16 17 16 16 16 16 18 21 21 21 21 22 22 22 24 25 27 26 23 23 23 19 17 16 15 15 16 15 17 17 16 16 16 14 14
1 0 1 4 4 3 4 5 6 7 9 9 9 10 10 11 11 12 13 12 12 13 13 13 13 13 15 16 17 16 15 17 18 19 21 22 22 22 23 24 24 24 24 27 27 24 24 25 20 17 17 14 13 14 14 15 18 18 17 16 15 15
1 1 1 4 4 3 3 4 5 6 7 8 8 9 9 9 11 13 14 13 13 13 13 13 13 14 16 16 17 18 17 18 19 20 22 23 23 23 23 25 25 24 23 26 27 24 22 23 21 19 18 14 11 12 13 13 16 18 18 17 17 16
1 2 2 3 4 5 4 4 5 5 6 6 7 9 8 9 11 12 13 13 13 13 13 13 13 15 17 17 18 19 19 19 19 20 22 25 26 24 24 25 25 23 23 25 25 22 20 19 21 21 19 17 15 13 12 13 13 13 15 18 18 16
2 3 3 4 5 6 5 5 6 6 6 7 9 11 10 11 12 12 13 14 14 14 14 13 14 16 18 18 19 19 21 22 21 21 22 24 26 26 26 26 25 23 23 24 26 25 23 21 21 23 21 20 19 15 12 13 14 12 12 16 17 16
1 2 4 5 7 7 6 7 8 8 9 9 10 12 12 13 14 14 14 15 15 16 15 14 13 16 17 18 18 19 20 22 23 23 23 24 26 26 27 26 25 25 24 23 24 25 26 23 21 22 23 22 20 17 14 13 15 15 13 14 17 17
2 2 4 5 6 7 9 10 10 10 12 13 13 14 14 14 15 16 16 17 17 17 17 16 15 16 17 18 18 19 21 22 22 23 24 25 26 26 26 27 28 28 27 25 23 23 24 23 21 19 20 21 21 20 17 13 13 16 16 15 16 18
2 3 5 5 7 8 9 10 11 12 14 15 15 15 15 16 16 18 18 18 19 19 18 18 16 17 17 18 19 19 21 22 22 22 24 25 26 26 26 27 28 28 28 26 24 23 23 22 21 19 17 18 20 21 21 18 15 16 19 18 15 16
3 3 4 5 7 9 9 11 11 13 15 16 17 17 18 18 18 20 20 20 20 20 20 19 18 18 19 18 18 19 21 22 21 21 23 24 25 25 25 26 26 26 26 26 25 25 24 23 21 19 17 17 19 20 21 21 19 18 20 19 16 15
3 4 5 5 6 7 8 9 10 12 14 14 16 17 17 17 19 21 22 22 21 20 21 20 19 19 19 17 17 19 20 19 20 21 21 22 24 25 25 25 26 26 26 26 26 25 24 23 21 19 18 17 18 19 20 20 19 19 19 16 15 15
3 4 4 5 6 6 7 8 9 11 12 13 14 14 15 15 18 20 22 22 21 22 23 21 18 18 17 17 17 19 18 18 20 20 20 21 24 25 25 26 27 27 27 26 26 26 25 23 21 19 19 19 19 20 21 21 19 18 15 13 13 14
3 4 5 5 5 6 7 7 8 10 11 12 13 13 14 16 18 20 21 23 22 22 23 21 18 17 17 17 18 18 17 17 18 19 20 21 22 23 24 26 26 26 26 25 23 24 24 23 21 19 19 19 19 19 20 21 19 16 14 13 13 12
4 5 5 5 6 6 6 7 8 9 10 11 11 12 13 14 17 19 20 22 23 23 22 19 18 18 17 18 17 17 17 17 18 18 20 21 22 23 24 25 26 26 24 22 22 23 23 22 20 18 18 18 19 19 19 20 19 16 15 14 12 13
5 5 6 6 7 7 7 7 8 9 9 10 11 12 13 14 16 18 19 21 23 24 22 19 17 17 17 17 16 17 17 17 17 18 19 20 23 24 24 25 25 25 24 22 22 21 21 20 18 16 17 19 19 19 19 20 19 17 17 15 13 14
6 6 7 7 8 8 8 9 9 9 10 11 12 13 14 15 17 19 20 22 23 24 23 20 18 17 17 16 16 17 16 16 17 17 18 19 21 22 23 23 23 24 24 22 21 20 19 18 17 16 17 19 19 19 19 20 20 18 18 15 13 14
Wind_Direction
170 168 169 172 174 167 162 161 160 158 158 160 162 166 171 173 176 182 187 189 194 195 193 195 199 202 200 198 201 197 197 200 193 180 169 171 168 157 150 145 145 141 136 131 125 122 117 114 112 108 106 104 93 85 86 92 86 81 83 32 53 73
171 171 171 177 178 170 165 163 162 161 160 161 162 164 167 172 178 181 186 188 195 197 196 202 205 208 205 202 204 199 199 205 203 197 185 181 176 165 161 156 155 153 144 135 128 120 116 116 112 109 113 104 86 83 95 96 91 94 113 250 9 60
169 173 174 178 177 178 173 161 164 169 165 167 168 170 171 172 176 175 174 173 177 185 197 211 211 220 220 211 209 204 201 207 210 207 203 194 184 178 174 168 167 161 154 150 131 113 112 112 113 122 110 85 88 98 95 91 97 108 175 248 240 211
176 176 175 177 172 180 175 156 167 180 174 187 187 179 171 167 179 184 178 172 181 190 198 203 207 220 236 232 220 212 205 208 213 213 214 210 198 192 190 186 180 170 165 158 136 128 145 126 119 128 83 76 110 113 92 98 110 113 202 245 195 209
186 178 170 170 170 178 171 162 174 184 194 206 202 186 182 190 197 209 212 197 196 198 197 200 211 217 224 234 228 220 214 211 215 214 215 219 212 203 200 200 195 185 169 143 151 181 193 202 162 95 104 133 148 115 113 120 112 117 247 259 198 190
190 182 172 170 187 192 181 176 184 203 214 209 207 206 202 203 208 225 227 215 212 212 208 205 211 214 216 225 223 222 222 221 222 218 215 216 214 210 200 202 208 199 176 151 185 199 192 197 180 141 156 165 138 115 132 131 120 136 251 269 193 175
187 193 189 189 202 204 195 189 195 216 223 216 215 220 218 216 219 229 231 228 225 218 216 214 215 214 212 217 217 212 211 222 230 226 219 206 202 210 194 198 212 201 191 189 201 204 194 192 178 170 182 166 138 141 153 145 140 152 243 277 206 178
184 193 194 199 209 207 208 208 206 217 225 220 219 223 227 229 228 228 228 227 225 220 220 223 222 214 205 207 213 206 193 208 220 223 224 203 193 207 195 197 211 200 199 203 198 199 198 192 184 181 184 167 153 165 166 156 154 155 203 284 251 189
189 196 201 206 218 218 218 218 213 218 224 222 223 224 226 230 228 228 229 226 228 230 229 231 228 216 208 206 205 200 192 199 203 209 223 207 195 206 198 199 211 205 200 203 199 195 195 194 192 187 183 186 182 179 169 165 164 154 171 238 270 262
196 203 206 205 215 220 221 225 224 224 224 225 230 227 227 231 228 229 235 233 235 235 233 235 234 227 220 210 200 198 197 200 199 199 212 207 200 206 202 199 209 209 197 199 206 200 194 198 201 193 191 204 203 187 175 171 166 166 189 228 262 269
198 198 200 202 208 218 225 230 234 231 229 234 234 228 232 238 235 233 237 237 242 244 241 240 238 238 238 224 208 207 205 201 201 199 202 203 205 208 203 200 206 208 195 194 205 206 201 202 207 199 197 204 192 182 185 183 178 181 201 220 250 262
211 207 210 214 214 224 233 234 236 232 232 240 238 235 240 246 245 244 243 242 243 244 246 242 233 232 236 230 222 219 212 204 204 206 207 203 208 214 208 202 207 210 201 199 203 205 204 203 208 204 200 202 191 189 198 201 193 189 201 205 216 245
227 227 226 228 229 234 238 238 240 239 239 245 249 250 254 259 259 258 256 255 248 238 241 242 231 226 228 229 231 230 225 219 214 213 217 210 211 222 220 210 208 211 209 205 203 205 206 204 208 205 201 205 198 194 203 208 200 198 203 201 202 213
226 225 223 228 234 240 246 248 248 249 249 252 259 264 269 274 273 270 263 261 257 245 241 241 238 233 228 230 235 235 232 229 223 220 225 224 223 227 228 222 215 212 211 206 202 205 206 204 208 205 201 205 202 203 207 201 203 210 204 197 199 196
222 221 227 239 241 244 251 254 254 253 255 260 266 270 277 280 277 273 268 266 267 262 249 240 243 242 235 233 235 236 231 227 224 225 227 229 230 228 225 226 222 216 215 210 204 206 207 205 206 203 202 201 203 210 209 203 209 216 207 207 206 191
217 225 235 251 255 255 256 256 259 261 262 267 272 269 268 271 272 276 277 277 275 269 257 245 246 247 244 241 236 237 235 228 226 227 228 228 231 230 224 223 223 220 221 216 209 208 207 206 204 201 203 200 207 216 208 211 218 214 209 210 206 196
216 237 244 253 260 259 262 263 264 269 269 269 273 272 270 274 280 285 283 281 279 274 266 257 257 257 256 251 243 243 242 237 234 232 231 229 228 229 228 227 223 221 223 221 214 209 205 206 206 202 205 201 210 221 211 217 220 208 215 209 202 206
180 226 250 248 254 255 262 268 265 266 268 270 273 277 277 277 282 284 280 281 280 276 274 266 266 270 269 261 250 244 241 240 238 235 230 227 228 228 228 231 228 222 223 221 216 210 203 206 208 203 206 203 210 220 211 217 213 200 216 211 203 210
165 198 239 239 248 254 258 261 266 268 268 270 272 280 284 280 284 284 280 283 279 275 276 272 273 277 275 268 254 241 240 243 240 237 231 225 228 229 227 229 229 225 226 224 217 212 206 205 206 204 205 201 210 221 216 217 210 200 216 213 205 206
159 198 241 246 248 252 252 249 255 264 270 274 271 275 279 275 276 274 274 282 281 275 273 270 275 278 274 269 257 245 242 243 241 238 234 228 229 235 235 230 228 227 228 227 216 211 210 204 198 198 203 202 209 220 221 220 210 201 213 215 208 203
280 220 241 256 255 260 269 262 259 260 267 277 276 275 279 276 270 263 269 279 281 277 268 266 272 272 272 269 260 251 244 243 244 240 235 232 235 243 244 235 232 230 228 229 217 206 207 205 195 191 197 205 214 221 223 224 215 206 212 211 210 210
281 242 249 267 268 285 285 270 267 262 255 263 270 275 278 276 272 267 272 278 279 277 270 263 265 266 269 269 258 248 243 243 246 244 237 234 236 242 244 240 239 234 229 231 225 210 205 204 198 195 196 203 218 224 227 229 221 213 216 209 207 215
273 207 297 285 267 265 268 259 253 247 242 242 248 259 265 266 267 268 273 278 279 280 275 267 266 268 268 265 257 244 236 242 247 244 238 235 235 239 242 240 242 240 232 231 229 218 210 206 202 202 203 206 217 221 226 232 225 218 221 213 206 215
279 78 248 267 265 253 264 275 271 257 252 254 250 249 256 266 270 268 269 271 271 275 278 274 271 270 265 260 255 246 237 241 245 244 239 236 235 237 241 240 243 242 235 230 226 220 213 207 205 205 202 203 210 214 220 230 227 222 221 216 211 214
284 286 235 263 291 293 279 291 298 292 281 281 283 272 261 265 270 271 271 267 263 265 270 270 264 262 263 259 253 249 244 243 244 244 241 239 238 237 239 240 240 237 232 229 224 222 218 209 205 206 202 197 201 210 219 228 229 225 220 219 219 218
290 299 302 286 294 296 296 294 287 288 289 290 290 281 272 270 270 273 276 272 267 265 264 264 260 257 260 259 255 252 250 248 247 247 245 244 242 239 238 236 231 228 231 229 219 214 215 212 211 213 209 206 208 213 221 225 223 218 215 221 224 221
295 307 316 299 294 296 294 286 285 287 280 272 267 267 270 271 268 268 271 273 272 267 261 261 261 259 258 259 259 255 252 251 249 248 248 247 245 243 241 234 224 222 228 229 220 215 216 218 218 219 217 214 215 220 228 231 224 214 209 217 222 219
246 299 302 296 301 304 298 292 295 295 283 274 267 267 268 267 267 267 268 270 270 269 266 263 260 262 265 263 260 257 255 254 251 249 248 247 247 246 242 237 229 225 225 224 223 223 222 220 221 222 221 221 222 226 232 236 231 225 218 213 215 216
229 274 277 284 295 294 296 295 291 284 279 279 276 272 270 269 269 268 267 267 266 267 267 265 258 260 267 267 263 261 257 254 252 250 248 247 247 247 243 237 233 229 227 226 225 224 220 220 225 226 222 222 225 226 229 234 235 233 228 218 213 212
284 274 259 264 272 271 278 283 281 277 275 276 275 273 271 270 269 269 267 268 268 268 266 264 259 258 262 265 266 265 259 255 252 250 248 246 243 243 240 234 232 232 231 230 229 226 221 222 229 228 220 220 222 224 229 234 234 233 230 222 216 211
321 308 288 276 272 269 270 271 271 271 269 269 269 269 270 268 269 270 268 266 268 268 267 265 262 260 261 264 265 263 260 258 254 246 243 242 240 239 238 234 233 232 229 228 230 229 225 223 225 222 217 218 219 222 229 230 225 229 228 216 209 206
335 323 318 307 294 287 282 280 277 276 276 276 275 273 273 271 270 270 268 266 265 265 265 263 260 259 260 264 262 258 259 258 250 241 237 237 235 233 235 234 232 230 227 227 226 226 224 221 219 217 216 218 220 222 226 223 220 230 233 215 202 200
340 330 334 320 310 302 293 291 288 287 290 290 289 283 278 279 279 274 269 265 262 261 261 259 257 257 256 256 257 256 257 253 246 241 236 233 230 229 230 232 231 229 227 225 221 221 221 220 219 218 217 217 218 220 219 217 221 234 235 214 199 199
351 338 343 328 315 309 300 296 290 287 289 290 291 286 281 283 282 277 271 265 261 261 261 257 253 253 252 250 252 256 253 247 245 242 235 230 228 227 228 230 231 227 223 223 223 222 220 218 217 215 216 217 217 218 213 212 223 234 228 209 200 198
358 343 340 330 318 310 299 294 289 286 285 284 285 285 284 285 283 278 274 269 264 260 258 256 252 249 250 250 251 252 249 245 244 239 233 230 227 226 224 224 225 223 219 220 224 224 220 219 215 212 216 218 217 219 215 213 220 227 219 206 202 202
356 341 334 330 321 312 301 293 291 291 291 289 289 290 292 293 289 283 277 272 267 262 256 253 254 251 249 251 250 248 247 244 239 234 231 230 228 225 221 217 217 218 219 221 224 222 217 218 217 216 221 221 221 223 219 214 213 216 215 207 205 207
345 335 331 326 314 306 301 294 291 291 293 294 293 293 295 295 290 284 279 273 268 265 258 252 254 254 249 250 249 246 245 240 234 230 228 227 225 219 215 215 213 213 218 222 222 219 213 217 223 227 228 223 223 223 216 211 209 211 214 211 215 216
Height
1526 1528 1529 1529 1530 1531 1533 1534 1535 1536 1537 1537 1538 1539 1540 1541 1542 1543 1543 1544 1545 1545 1546 1547 1548 1549 1549 1550 1551 1552 1553 1554 1555 1557 1558 1558 1559 1559 1560 1561 1561 1562 1562 1562 1562 1561 1561 1561 1561 1561 1562 1562 1561 1562 1563 1565 1566 1565 1564 1562 1560 1560
1528 1529 1530 1530 1531 1532 1533 1534 1536 1537 1538 1539 1540 1541 1541 1543 1543 1544 1545 1545 1546 1546 1547 1547 1548 1549 1549 1550 1550 1551 1552 1553 1554 1555 1557 1558 1559 1559 1560 1561 1562 1562 1562 1563 1563 1562 1562 1562 1562 1562 1563 1562 1562 1563 1565 1565 1566 1566 1564 1562 1561 1560
1530 1531 1531 1532 1532 1534 1535 1536 1539 1540 1540 1541 1541 1542 1543 1544 1545 1546 1547 1547 1547 1548 1548 1548 1548 1549 1549 1550 1550 1551 1552 1552 1553 1554 1556 1557 1558 1559 1560 1561 1561 1562 1563 1563 1563 1563 1563 1563 1563 1563 1563 1563 1563 1565 1565 1565 1566 1566 1564 1562 1561 1561
1531 1532 1532 1533 1535 1537 1539 1540 1542 1543 1543 1543 1543 1544 1545 1546 1548 1548 1548 1548 1548 1549 1549 1549 1549 1549 1549 1550 1550 1550 1551 1552 1552 1554 1555 1556 1558 1559 1560 1561 1561 1561 1562 1563 1563 1565 1565 1564 1564 1564 1564 1564 1565 1566 1566 1566 1566 1565 1563 1562 1561 1561
1533 1534 1535 1537 1539 1541 1542 1542 1544 1545 1545 1544 1544 1545 1545 1546 1547 1548 1548 1549 1549 1549 1550 1550 1550 1549 1549 1549 1549 1550 1550 1550 1551 1552 1554 1555 1556 1558 1559 1560 1561 1561 1562 1562 1564 1566 1566 1565 1564 1564 1565 1565 1565 1566 1567 1567 1566 1566 1563 1561 1561 1561
1534 1535 1536 1538 1541 1543 1543 1543 1543 1543 1543 1543 1543 1544 1544 1545 1545 1546 1546 1547 1548 1550 1552 1552 1550 1550 1549 1548 1548 1548 1549 1549 1550 1551 1553 1554 1556 1557 1558 1560 1560 1561 1561 1562 1564 1566 1566 1566 1565 1565 1565 1565 1565 1566 1567 1567 1567 1566 1563 1561 1561 1560
1533 1535 1535 1537 1540 1541 1542 1541 1539 1539 1539 1540 1540 1542 1543 1544 1545 1545 1545 1546 1547 1550 1552 1552 1550 1548 1548 1547 1547 1548 1548 1549 1549 1550 1551 1553 1555 1556 1558 1560 1560 1560 1561 1563 1565 1565 1565 1566 1566 1566 1565 1564 1565 1567 1567 1567 1567 1566 1563 1561 1561 1560
1533 1535 1536 1536 1538 1539 1540 1539 1538 1537 1538 1539 1539 1541 1543 1543 1544 1545 1546 1546 1547 1549 1550 1550 1549 1547 1546 1547 1547 1547 1548 1548 1549 1549 1550 1552 1555 1555 1557 1559 1559 1560 1561 1562 1563 1564 1565 1565 1566 1566 1565 1564 1565 1566 1567 1567 1567 1566 1563 1561 1560 1560
1533 1535 1535 1536 1536 1538 1538 1538 1538 1537 1538 1539 1539 1541 1542 1543 1544 1544 1544 1545 1546 1548 1548 1548 1548 1548 1547 1545 1546 1547 1548 1548 1548 1549 1550 1551 1554 1555 1556 1558 1559 1559 1560 1561 1562 1563 1564 1565 1565 1565 1565 1564 1564 1565 1566 1566 1566 1565 1564 1562 1560 1560
1533 1534 1534 1535 1536 1537 1538 1537 1537 1537 1538 1538 1539 1540 1540 1541 1542 1541 1542 1542 1543 1545 1545 1545 1546 1548 1548 1546 1545 1546 1547 1548 1548 1549 1550 1551 1553 1553 1554 1556 1557 1558 1558 1560 1561 1561 1562 1564 1565 1565 1565 1563 1563 1564 1565 1565 1565 1565 1563 1562 1560 1560
1532 1533 1534 1535 1536 1537 1537 1536 1535 1536 1537 1536 1537 1538 1538 1538 1539 1539 1540 1540 1540 1542 1542 1541 1542 1545 1547 1546 1545 1545 1546 1547 1548 1549 1550 1551 1553 1553 1553 1555 1556 1556 1557 1558 1560 1560 1561 1563 1564 1564 1564 1563 1563 1564 1564 1564 1564 1564 1562 1561 1560 1559
1531 1532 1533 1534 1535 1535 1535 1535 1535 1535 1536 1536 1536 1536 1536 1537 1537 1538 1538 1538 1540 1541 1539 1539 1540 1542 1543 1543 1543 1544 1545 1546 1547 1548 1549 1551 1552 1552 1552 1553 1554 1555 1556 1556 1558 1559 1560 1562 1563 1563 1563 1563 1563 1563 1563 1563 1563 1563 1562 1561 1560 1560
1530 1531 1532 1533 1533 1534 1534 1534 1535 1535 1535 1535 1535 1535 1535 1536 1536 1537 1536 1536 1538 1540 1539 1539 1539 1540 1540 1541 1541 1542 1543 1545 1546 1546 1547 1549 1551 1551 1551 1552 1552 1553 1554 1555 1556 1558 1558 1560 1561 1562 1562 1562 1562 1562 1562 1562 1562 1562 1561 1561 1560 1560
1530 1531 1531 1532 1533 1534 1534 1535 1535 1535 1534 1534 1534 1535 1535 1535 1535 1536 1536 1535 1536 1537 1537 1538 1538 1538 1539 1539 1540 1541 1542 1543 1544 1545 1545 1547 1549 1550 1551 1551 1552 1552 1553 1554 1555 1556 1557 1559 1560 1561 1561 1561 1561 1561 1560 1561 1561 1561 1561 1560 1560 1561
1530 1531 1532 1532 1533 1534 1534 1534 1534 1534 1533 1533 1534 1535 1536 1536 1535 1535 1535 1535 1534 1533 1534 1535 1536 1537 1537 1538 1539 1540 1541 1542 1542 1543 1543 1545 1547 1549 1550 1551 1551 1551 1552 1553 1553 1554 1555 1557 1558 1559 1559 1559 1560 1559 1559 1560 1560 1560 1560 1560 1560 1560
1530 1531 1532 1532 1533 1533 1532 1532 1532 1532 1532 1533 1534 1535 1535 1535 1534 1534 1534 1533 1533 1532 1532 1533 1534 1535 1535 1536 1537 1538 1539 1540 1540 1541 1542 1543 1544 1546 1548 1549 1550 1551 1551 1551 1552 1552 1553 1555 1556 1557 1557 1557 1558 1557 1558 1558 1558 1559 1559 1559 1560 1560
1530 1531 1532 1532 1532 1532 1532 1532 1531 1531 1532 1533 1534 1534 1534 1533 1532 1532 1533 1533 1532 1531 1531 1531 1532 1533 1534 1534 1535 1536 1537 1538 1539 1539 1540 1541 1541 1543 1545 1547 1549 1549 1550 1551 1550 1550 1551 1553 1554 1554 1555 1556 1556 1556 1557 1557 1557 1558 1559 1559 1559 1559
1530 1531 1531 1532 1532 1532 1532 1531 1531 1531 1531 1532 1533 1534 1533 1532 1532 1532 1532 1532 1532 1531 1530 1530 1531 1531 1532 1532 1533 1534 1535 1536 1537 1538 1538 1539 1539 1541 1543 1545 1547 1548 1549 1550 1548 1548 1549 1551 1551 1552 1553 1554 1555 1554 1555 1555 1556 1557 1558 1558 1558 1558
1530 1531 1531 1531 1531 1531 1531 1531 1531 1531 1530 1531 1531 1532 1532 1531 1531 1531 1531 1531 1531 1530 1529 1529 1530 1530 1530 1531 1532 1533 1534 1535 1536 1536 1537 1537 1538 1539 1540 1542 1544 1546 1548 1548 1547 1547 1547 1547 1549 1550 1551 1552 1553 1553 1553 1553 1554 1556 1558 1557 1557 1557
1530 1531 1531 1531 1531 1531 1531 1531 1530 1530 1530 1530 1530 1531 1531 1531 1531 1531 1530 1530 1529 1529 1529 1529 1529 1530 1530 1531 1531 1532 1532 1533 1534 1535 1535 1535 1536 1537 1538 1540 1542 1544 1546 1547 1547 1545 1544 1544 1546 1548 1549 1550 1551 1551 1552 1552 1553 1555 1556 1556 1556 1556
1531 1531 1531 1531 1531 1530 1530 1530 1530 1530 1530 1530 1530 1530 1530 1531 1531 1530 1529 1528 1528 1528 1528 1528 1528 1529 1530 1530 1531 1531 1531 1531 1532 1532 1533 1534 1535 1536 1537 1538 1539 1541 1544 1545 1545 1543 1542 1542 1544 1546 1547 1548 1549 1549 1550 1550 1551 1553 1554 1555 1555 1555
1531 1531 1531 1531 1530 1530 1530 1530 1529 1529 1530 1530 1530 1530 1530 1530 1530 1529 1528 1528 1528 1528 1528 1527 1528 1528 1529 1530 1530 1530 1530 1530 1530 1530 1532 1532 1533 1534 1535 1536 1537 1539 1540 1542 1542 1541 1540 1541 1542 1544 1545 1546 1547 1548 1549 1549 1550 1551 1552 1553 1554 1554
1531 1531 1531 1531 1530 1530 1530 1529 1529 1528 1528 1528 1529 1529 1528 1528 1528 1527 1526 1527 1527 1527 1527 1527 1527 1527 1528 1528 1529 1528 1528 1528 1529 1529 1529 1530 1531 1532 1533 1534 1535 1536 1537 1538 1539 1540 1539 1540 1541 1542 1543 1544 1545 1547 1548 1548 1549 1550 1550 1551 1552 1552
1531 1531 1531 1530 1529 1529 1529 1528 1527 1527 1527 1527 1527 1527 1527 1527 1526 1526 1525 1525 1525 1524 1525 1526 1526 1526 1526 1526 1527 1527 1527 1527 1527 1527 1527 1528 1528 1530 1531 1532 1533 1533 1534 1534 1536 1538 1538 1538 1540 1540 1541 1543 1544 1545 1546 1545 1547 1548 1550 1550 1550 1551
1531 1531 1530 1530 1529 1528 1528 1527 1527 1526 1526 1526 1526 1526 1526 1526 1526 1525 1524 1524 1524 1523 1523 1523 1524 1524 1524 1524 1525 1525 1525 1525 1525 1525 1525 1525 1526 1527 1528 1529 1530 1531 1531 1531 1533 1535 1535 1535 1537 1538 1538 1541 1542 1543 1543 1544 1545 1547 1549 1549 1549 1550
1531 1530 1530 1530 1529 1528 1527 1527 1527 1527 1527 1526 1526 1526 1526 1526 1525 1524 1523 1523 1523 1522 1522 1522 1521 1521 1522 1522 1522 1522 1522 1522 1523 1523 1523 1523 1524 1524 1525 1526 1527 1528 1528 1529 1531 1533 1532 1533 1535 1536 1537 1539 1540 1541 1542 1543 1544 1546 1547 1548 1548 1548
1531 1530 1530 1529 1529 1528 1528 1527 1527 1527 1526 1526 1526 1526 1525 1524 1524 1523 1523 1522 1521 1521 1521 1521 1521 1520 1520 1519 1519 1519 1519 1520 1520 1521 1521 1521 1522 1522 1523 1523 1523 1525 1526 1527 1529 1530 1531 1532 1534 1534 1536 1538 1540 1541 1542 1543 1544 1545 1546 1545 1546 1547
1530 1530 1530 1529 1529 1528 1528 1527 1527 1526 1525 1525 1524 1524 1524 1523 1522 1522 1521 1520 1520 1520 1519 1519 1519 1519 1518 1518 1517 1517 1517 1517 1517 1518 1518 1519 1519 1519 1521 1521 1520 1522 1524 1526 1527 1528 1529 1531 1532 1533 1535 1537 1539 1540 1542 1543 1544 1544 1544 1544 1544 1545
1529 1530 1529 1529 1528 1528 1527 1527 1526 1525 1524 1524 1523 1523 1522 1521 1521 1520 1519 1518 1518 1518 1517 1517 1517 1516 1516 1516 1516 1515 1515 1514 1514 1515 1515 1516 1516 1517 1518 1519 1519 1520 1521 1523 1525 1526 1528 1529 1530 1532 1534 1536 1537 1539 1541 1542 1543 1544 1544 1544 1543 1544
1527 1528 1528 1528 1528 1527 1526 1526 1525 1524 1523 1523 1522 1521 1520 1520 1519 1518 1517 1516 1516 1515 1515 1515 1514 1514 1513 1513 1513 1512 1512 1511 1511 1511 1512 1513 1514 1514 1515 1517 1518 1518 1519 1520 1522 1523 1525 1527 1529 1531 1533 1534 1535 1538 1539 1541 1543 1544 1544 1544 1543 1543
1527 1527 1527 1526 1526 1525 1525 1524 1523 1523 1522 1521 1520 1519 1519 1518 1517 1516 1515 1514 1514 1513 1512 1512 1512 1512 1511 1510 1510 1509 1509 1509 1508 1508 1509 1510 1511 1511 1513 1514 1515 1516 1517 1518 1520 1521 1523 1525 1527 1529 1531 1532 1534 1536 1537 1539 1542 1544 1545 1544 1542 1542
1528 1527 1526 1525 1524 1524 1523 1522 1522 1521 1520 1519 1518 1517 1516 1516 1515 1514 1513 1512 1511 1511 1510 1510 1510 1509 1508 1507 1507 1507 1506 1506 1505 1505 1505 1507 1508 1509 1510 1512 1513 1514 1515 1517 1518 1520 1521 1523 1525 1527 1529 1531 1532 1534 1536 1538 1541 1542 1543 1543 1541 1540
1528 1526 1525 1525 1524 1523 1522 1522 1521 1520 1519 1518 1516 1515 1514 1513 1513 1512 1511 1510 1508 1508 1508 1508 1507 1507 1506 1505 1505 1504 1503 1503 1502 1503 1503 1504 1506 1507 1508 1509 1511 1512 1514 1515 1517 1518 1520 1522 1524 1525 1527 1529 1531 1533 1535 1537 1538 1539 1539 1540 1539 1539
1526 1525 1524 1524 1523 1522 1522 1521 1521 1519 1518 1517 1516 1515 1513 1512 1511 1510 1508 1507 1506 1505 1505 1505 1505 1504 1503 1503 1502 1502 1501 1501 1501 1501 1501 1502 1504 1505 1506 1507 1509 1510 1512 1513 1515 1517 1519 1521 1523 1524 1526 1528 1530 1531 1533 1535 1536 1536 1536 1537 1538 1539
1525 1524 1523 1523 1522 1521 1521 1520 1519 1518 1517 1516 1515 1514 1512 1510 1509 1507 1506 1504 1504 1503 1503 1503 1503 1502 1501 1501 1500 1500 1499 1499 1499 1499 1500 1501 1502 1504 1505 1505 1507 1509 1510 1512 1514 1517 1519 1520 1521 1522 1524 1526 1527 1529 1532 1533 1534 1535 1536 1536 1536 1538
1524 1523 1522 1522 1521 1520 1519 1518 1518 1517 1516 1514 1513 1512 1510 1508 1507 1505 1504 1502 1501 1501 1500 1501 1501 1500 1499 1498 1498 1498 1497 1497 1497 1498 1498 1499 1501 1502 1503 1504 1505 1507 1509 1511 1514 1516 1518 1518 1518 1519 1521 1523 1525 1527 1529 1531 1533 1534 1534 1535 1535 1536
1522 1522 1522 1521 1520 1519 1518 1517 1516 1515 1515 1514 1512 1511 1509 1507 1505 1503 1502 1500 1499 1498 1497 1497 1497 1498 1497 1496 1496 1496 1495 1495 1495 1496 1497 1498 1499 1500 1502 1503 1505 1507 1509 1511 1513 1514 1516 1516 1516 1518 1519 1521 1522 1524 1527 1529 1530 1532 1532 1534 1535 1535